Regional Weather Roundup
Issued by NWS

Home | Current Version | Previous Version | Text Only | Print | Product List | Glossary On
Versions: 1 2 3 4 5 6 7 8 9 10 11 12 13 14 15 16 17 18 19 20 21 22 23 24 25 26 27
000
ASUS45 KCYS 290310
RWRWY

WYOMING REGIONAL WEATHER ROUNDUP
NATIONAL WEATHER SERVICE CHEYENNE WY
900 PM MDT FRI APR 28 2017

NOTE:  "FAIR" INDICATES FEW OR NO CLOUDS BELOW 12,000 FEET
WITH NO SIGNIFICANT WEATHER AND/OR OBSTRUCTIONS TO VISIBILITY.

WYZ001-290400-
YELLOWSTONE NATIONAL PARK

CITY           SKY/WX    TMP DP  RH WIND       PRES   REMARKS
LK YELLOWSTONE   N/A     28  19  69 VRB5      30.09R WCI  23
W YELLOWSTONE  NOT AVBL

$$
WYZ002>013-054>058-071-098>099-290400-
NORTHERN WYOMING

CITY           SKY/WX    TMP DP  RH WIND       PRES   REMARKS
JACKSON        MOCLDY    36  25  64 E15       30.03  WCI  26
CODY           FAIR      34  30  85 N3        30.15R
GREYBULL       CLOUDY    43  27  53 CALM      30.11R
WORLAND        CLOUDY    38  35  89 SW8       30.13R WCI  32
SHERIDAN       CLOUDY    35  32  88 CALM      30.17R
BUFFALO        CLOUDY    33  22  63 SW7       30.17R WCI  27
GILLETTE       CLOUDY    35  28  75 W3        30.16R
HULETT         FAIR      37  27  65 E3        30.17R
NEWCASTLE      FAIR      37  27  65 E3        30.15R

$$
WYZ014>020-022>026-101>103-290400-
CENTRAL WYOMING

CITY           SKY/WX    TMP DP  RH WIND       PRES   REMARKS
BIG PINEY      MOCLDY    31  17  56 NE8       30.01R WCI  23
PINEDALE       FAIR      32  14  47 NE9       30.01R WCI  24
DUBOIS         LGT SNOW  27  25  93 SE12      30.06R WCI  16
LANDER         LGT SNOW  29  28  96 SE3       30.12R FOG
RIVERTON       LGT SNOW  30  30 100 E6        30.13R FOG     WCI  24
CASPER         LGT SNOW  29  27  92 NE13      30.13R FOG     WCI  19
DOUGLAS        LGT SNOW  30  28  92 NE6       30.15R FOG     WCI  24

$$
WYZ021-027>030-104>119-290400-
SOUTHERN WYOMING

CITY           SKY/WX    TMP DP  RH WIND       PRES   REMARKS
EVANSTON       FLURRIES  28  25  88 E12       30.00R WCI  18
FORT BRIDGER   CLOUDY    30  25  81 E10       30.03R WCI  21
ROCK SPRINGS   CLOUDY    30  24  78 NE23G32   30.00R WCI  17
DIXON            N/A     35  24  66 NE8       29.92R WCI  28
RAWLINS        CLOUDY    28  21  75 E24G30    30.00R WCI  14
SARATOGA       FAIR      28  27  93 E9        29.96R WCI  20
LARAMIE        CLOUDY    23  19  85 E18G28    30.01R WCI   9
CHEYENNE       CLOUDY    27  25  92 NE12      30.07R FOG     WCI  17
TORRINGTON     LGT SNOW  33  32  96 N5        30.11R FOG     WCI  29
PINE BLUFFS    CLOUDY    30  30 100 NE8       30.10R WCI  23

$$




USA.gov is the U.S. government's official web portal to all federal, state and local government web resources and services.